Location: Brompton
(51.4000°N, 0.5333°E)
Time: 18:28:00
(UTC+00:00)

USA 307 - Pass Details

Date: 11 May 2021
Orbit: 566 x 577 km, 54.0° (Epoch: 10 May)

Event Time Altitude Azimuth Distance (km) Brightness Sun altitude
Rises 21:06:08 0° 292° (WNW) 2,777 7.6 -11.4°
Reaches altitude 10° 21:08:24 10° 289° (WNW) 1,879 6.5 -11.6°
Maximum altitude 21:12:38 64° 208° (SSW) 638 3.0 -12.0°
Enters shadow 21:15:37 19° 131° (SE) 1,407 4.3 -12.3°
